Home   Weather   Citrus Heights   Past weeks

Flag for USA Past Weather in Citrus Heights, California, USA — Yesterday and Last 2 Weeks

Now
55 °F

Clear.


Feels Like: 55 °F
Forecast: 56 / 96 °F
Wind: 5 mph from South

Location: Mather Field

Current Time: Jun 29, 2017 at 5:26:40 am

Latest Report: Jun 29, 2017 at 4:58 am


Visibility: 10 mi

Pressure: 29.87 "Hg

Humidity: 88%

Dew Point: 52 °F

Location of Citrus HeightsLocation

Past Weather in Citrus Heights — Graph

°F

Citrus Heights Temperature Yesterday

Maximum temperature yesterday: 90 °F (at 4:45 pm)
Minimum temperature yesterday: 54 °F (at 2:45 am)
Average temperature yesterday: 70 °F

High & Low Weather Summary for the Past Weeks

 TemperatureHumidityPressure
High108 °F (Jun 22, 3:45 pm)94% (Jun 26, 5:50 am)30.01 "Hg (Jun 26, 5:50 am)
Low54 °F (Jun 14, 3:45 am)13% (Jun 22, 2:45 pm)29.60 "Hg (Jun 21, 6:50 pm)
Average81 °F48%29.83 "Hg
* Reported Jun 14 3:45 am — Jun 29 3:53 am, Citrus Heights. Weather by CustomWeather, © 2017

Note: Actual official high and low records may vary slightly from our data, if they occured in-between our weather recording intervals... More about our weather records

Advertising

Citrus Heights Weather History for the Previous 24 Hours

Scroll right to see more
 ConditionsComfort  
Time TempWeatherWind HumidityBarometerVisibility
3:53 am
Thu, Jun 29
57 °FClear.8 mph82%29.86 "Hg10 mi
2:52 am57 °FClear.7 mph82%29.86 "Hg10 mi
11:30 pm
Wed, Jun 28
64 °FClear.6 mph68%29.85 "Hg10 mi
10:45 pm66 °FClear.7 mph64%29.84 "Hg10 mi
9:45 pm70 °FClear.7 mph60%29.82 "Hg10 mi
8:45 pm75 °FClear.7 mph54%29.81 "Hg10 mi
7:47 pm82 °FSunny.10 mph42%29.81 "Hg10 mi
4:45 pm90 °FSunny.7 mph29%29.81 "Hg10 mi
3:45 pm88 °FSunny.7 mph29%29.83 "Hg10 mi
2:45 pm86 °FPleasantly warm.7 mph35%29.85 "Hg10 mi
1:45 pm82 °FSunny.8 mph40%29.87 "Hg10 mi
12:50 pm81 °FSunny.7 mph42%29.88 "Hg10 mi
11:58 am77 °FSunny.3 mph47%29.89 "Hg10 mi
10:58 am73 °FSunny.7 mph53%29.90 "Hg10 mi
8:55 am64 °FSunny.5 mph68%29.90 "Hg10 mi
7:55 am61 °FSunny.5 mph77%29.90 "Hg10 mi
6:45 am55 °FSunny.5 mph94%29.88 "Hg10 mi
5:45 am54 °FSunny.6 mph88%29.87 "Hg10 mi
Weather by CustomWeather, © 2017

See weather overviewHow to use our weather pages